Вернуться в каталог

STARLINK-3802

АктивенСвязьVLEO
NORAD 52286·PAYLOAD·🇺🇸 United States

Запущен Apr 21, 2022 с Cape Canaveral Space Force Station

Loading…

Ближайшие Пролёты (ближайшие 24 часа)

TLE

СвежийSource: CelesTrak SupGP

Эпоха: Sep 14, 2026, 21:40 UTC

1 52286C 22041AB  26257.90326389 -.00093857  00000+0 -27758-2 0  2575
2 52286  53.1575 317.5456 0001136  84.4528 184.9535 15.34406122    18

Отслеживайте STARLINK-3802 в реальном времени с AllMySat

Download on the App Store